SCP
1 1 1 1 2 2 2 2 2 1 1 1 2 2 2 2 2 2 2 1 1 1 0 0 1 1 0 0 0 1 1 1 1 1 1 1 1 1
1 1 2 2 2 2 2 2 2 1 1 1 2 2 2 2 2 2 1 1 1 1 0 0 0 1 0 0 0 0 0 1 1 1 1 1 1 1
1 2 2 2 2 2 2 3 3 2 1 2 2 2 2 2 1 1 1 1 1 1 1 0 0 0 0 0 0 0 0 0 0 0 1 1 1 1
1 1 2 2 2 2 2 2 2 2 2 2 2 2 2 1 1 1 1 1 1 1 1 0 0 0 0 0 0 0 0 0 0 0 0 0 1 1
1 1 1 1 1 1 1 1 2 2 2 2 2 2 2 1 1 1 1 1 1 1 1 0 0 0 0 0 0 0 0 0 0 0 0 0 0 0
1 1 1 1 1 1 1 1 2 2 2 2 2 2 2 1 1 1 1 2 1 1 2 1 0 0 0 0 0 0 0 0 0 0 0 0 0 0
1 1 1 1 1 1 1 1 2 2 2 2 2 2 1 1 1 1 1 1 2 2 2 2 1 1 1 0 0 0 0 0 0 0 0 0 0 0
2 2 1 1 0 0 0 0 1 1 2 2 2 2 1 1 1 1 1 2 2 2 2 2 2 2 1 1 0 0 0 0 0 0 0 0 0 0
3 2 1 1 1 1 0 0 0 1 1 2 2 1 1 1 1 1 1 2 2 2 2 2 2 2 2 1 0 0 0 0 0 0 0 0 0 0
4 3 2 1 1 1 1 1 1 1 1 1 1 1 1 1 1 1 2 2 1 2 2 2 2 2 2 1 0 0 0 0 0 0 0 0 0 0
5 4 2 1 1 1 1 1 1 1 1 1 1 0 0 0 1 1 2 2 2 2 2 3 3 2 2 1 1 1 0 0 0 0 0 0 0 0
6 4 2 1 0 0 1 1 1 1 1 1 1 0 0 0 1 1 2 2 2 2 3 3 3 3 3 2 2 2 1 1 1 0 0 0 0 0
7 5 3 1 0 0 0 1 1 1 1 1 1 1 1 1 1 1 1 2 2 2 3 3 3 4 4 3 3 3 3 2 2 1 1 0 0 0
7 6 3 1 0 0 0 0 0 0 1 1 1 1 1 1 1 2 2 2 2 2 2 3 3 4 4 4 4 3 3 3 2 2 2 1 0 0
7 5 3 1 0 0 0 0 0 0 1 1 1 1 1 2 2 2 2 3 3 2 2 3 3 4 4 4 4 3 2 2 2 2 2 2 1 1
7 5 3 1 0 0 0 0 1 1 1 1 1 1 1 1 2 2 3 3 3 3 3 3 2 3 3 3 3 3 2 2 2 2 2 2 1 1
7 7 5 2 1 1 1 1 1 1 1 1 1 1 1 1 1 2 2 2 2 2 3 3 2 2 2 2 2 2 2 1 2 2 2 2 1 1
5 7 7 4 3 2 2 2 1 1 1 1 1 1 1 1 1 1 1 1 1 2 2 3 2 1 1 1 1 1 1 1 2 2 2 2 1 1
4 6 7 5 4 4 3 3 2 1 1 1 1 1 2 1 1 1 1 1 1 1 2 2 2 1 1 1 1 1 1 1 2 2 2 2 1 1
3 4 6 6 5 4 4 3 2 2 2 1 1 2 2 2 2 2 1 1 1 1 1 1 2 1 1 1 1 1 1 1 2 2 2 1 1 1
2 3 5 6 6 4 3 3 2 2 2 2 1 2 2 2 2 2 1 1 1 1 1 1 1 1 1 1 1 0 0 1 1 1 1 1 1 1
1 2 4 6 7 6 4 3 2 2 2 2 1 1 1 1 1 1 1 1 1 1 1 1 1 1 1 1 0 0 0 0 0 1 1 0 0 1
1 2 4 6 7 7 6 3 2 2 2 2 1 1 1 1 1 1 1 1 1 1 1 1 1 1 1 1 0 0 1 0 0 0 0 0 0 0
Wind_Speed
3 3 3 2 3 3 3 4 4 4 2 2 2 2 2 1 1 3 2 4 4 5 5 4 4 4 4 4 4 5 5 6 6 7 8 8 9 9
2 2 3 3 2 3 3 3 3 4 3 1 2 1 2 2 2 3 3 6 6 6 5 5 5 5 5 4 4 5 5 6 6 6 7 7 7 8
3 2 3 3 3 3 2 3 3 3 4 2 1 1 1 3 1 3 4 4 4 7 6 5 5 5 5 5 5 5 5 6 6 7 7 7 8 8
2 2 3 2 2 3 3 3 2 3 4 3 2 2 2 3 2 4 4 3 3 7 8 7 6 6 5 5 5 5 6 6 6 6 6 7 7 8
2 2 2 2 3 2 3 3 3 3 3 4 3 2 2 2 2 4 3 3 5 5 8 9 7 7 6 6 5 5 6 5 5 5 5 5 6 6
2 2 3 3 3 3 3 3 4 4 3 4 3 2 2 2 2 3 3 2 4 3 2 4 6 9 8 6 5 6 6 6 5 5 5 5 5 5
2 2 2 1 3 3 4 3 3 4 4 4 3 3 2 2 3 3 3 3 3 3 3 3 4 5 6 7 6 6 6 6 6 5 5 5 5 5
2 2 2 2 2 3 2 3 4 4 4 4 3 3 3 3 3 4 4 4 4 2 4 5 4 4 4 4 5 7 7 6 6 6 5 5 5 5
2 2 3 1 2 2 3 4 4 3 4 5 5 4 3 3 4 6 4 5 5 3 4 5 4 4 4 3 8 8 7 7 7 7 6 6 6 6
2 2 2 2 2 3 4 3 3 3 4 5 4 4 4 4 5 6 6 6 6 4 3 6 4 4 4 3 9 9 8 8 8 7 7 6 6 7
2 2 2 2 2 3 4 4 4 3 3 3 3 4 4 4 5 5 5 5 5 4 2 5 4 4 4 5 5 10 9 9 9 9 8 8 7 7
2 2 2 0 1 2 4 4 4 4 4 3 4 6 6 6 6 6 6 6 6 5 1 3 5 4 4 4 3 4 6 8 10 10 10 9 8 7
2 2 1 4 2 3 5 4 4 5 5 5 4 4 4 4 5 5 5 6 6 5 3 3 5 5 5 5 4 4 4 4 5 7 9 10 10 9
3 2 1 3 2 4 4 3 4 7 6 4 3 3 3 3 3 4 4 5 6 6 5 5 5 5 6 6 5 4 4 4 4 4 4 7 10 11
2 2 1 2 4 5 5 5 6 5 5 4 4 4 3 3 4 4 4 5 6 6 5 5 7 6 6 7 6 5 4 4 4 4 3 4 5 5
2 2 5 6 6 4 4 5 4 3 4 5 4 4 3 3 3 4 4 4 5 4 4 5 6 7 7 7 6 6 5 4 3 4 4 4 4 5
3 3 3 2 3 3 2 2 3 3 3 4 4 4 4 4 4 4 4 5 5 5 4 3 3 4 5 6 6 5 4 4 3 3 4 4 4 5
4 3 2 3 3 3 3 3 3 3 3 4 4 4 5 5 5 4 4 4 5 5 4 3 3 3 4 3 4 6 5 4 3 3 4 5 4 4
3 3 2 3 3 3 3 3 3 2 3 4 4 4 5 5 4 4 4 4 5 5 4 4 4 4 5 5 2 2 5 4 3 3 4 4 4 3
3 3 3 3 3 3 3 3 4 3 3 3 4 4 4 4 4 4 4 4 5 5 5 4 4 4 5 5 4 3 4 5 4 4 4 4 4 2
3 3 3 3 3 3 3 3 4 4 4 4 4 4 4 4 4 5 4 4 5 5 5 4 3 4 5 4 4 3 2 3 4 5 5 4 4 4
3 3 3 3 3 3 3 3 3 3 4 4 4 4 4 4 4 5 5 4 4 5 5 4 3 4 4 5 5 5 4 3 3 5 5 6 5 5
3 4 3 3 3 3 3 3 4 4 4 4 4 4 4 4 4 4 5 5 5 5 5 5 4 4 4 5 5 5 5 5 4 3 3 3 5 5
Wind_Direction
252 238 255 257 253 252 255 266 272 270 244 208 239 243 244 230 160 239 231 167 194 214 222 221 216 214 213 215 219 225 225 227 227 226 226 226 227 228
268 283 274 265 266 260 256 261 268 280 282 258 244 255 299 258 180 246 239 176 195 205 210 216 217 214 214 216 221 226 228 230 230 228 226 227 227 227
267 247 254 283 280 272 262 263 263 270 269 268 266 201 254 277 234 252 239 229 191 182 194 208 215 215 216 219 225 228 228 230 232 233 233 233 230 228
273 277 271 257 252 273 278 271 269 272 270 272 264 243 240 247 246 257 252 242 243 170 186 200 209 213 213 217 223 224 223 227 229 233 238 240 239 233
271 277 289 287 279 280 273 271 266 253 259 259 255 268 257 247 251 250 251 267 262 178 186 195 202 212 214 217 224 220 215 218 226 231 234 241 244 241
284 288 295 297 291 284 264 264 268 267 255 255 258 252 249 230 258 264 254 242 266 262 221 206 195 206 209 210 213 212 210 211 217 225 229 234 240 245
272 277 287 314 330 309 302 288 276 270 263 260 261 265 273 271 270 274 276 269 250 261 263 235 209 218 207 208 213 210 209 212 217 221 226 230 235 241
265 272 244 210 214 221 274 307 304 277 281 278 273 277 277 281 293 283 284 280 274 244 266 260 238 235 226 221 179 187 200 209 216 220 223 227 232 237
258 268 281 318 244 268 231 222 234 242 263 274 282 288 281 285 287 279 278 284 288 290 268 266 250 248 242 196 158 178 197 209 219 220 223 225 228 232
251 257 272 294 323 307 279 261 260 251 241 245 272 280 290 292 272 272 282 270 260 251 262 273 272 266 266 237 164 180 199 211 215 217 221 225 230 233
245 264 277 284 25 315 277 266 261 253 221 225 263 269 285 283 287 280 275 272 272 259 227 267 275 276 268 258 191 183 198 206 211 214 217 219 225 232
222 212 147 283 7 297 274 271 268 275 277 237 232 236 243 240 232 253 273 275 276 274 258 266 275 279 272 263 258 210 213 209 211 214 214 213 213 232
263 255 124 139 200 258 274 280 293 291 271 265 255 249 245 247 243 244 259 272 279 279 290 270 281 277 274 279 274 266 252 238 219 217 212 207 207 226
286 296 63 136 205 245 259 280 281 273 267 268 270 272 275 276 273 273 270 270 276 278 287 290 285 285 283 278 277 270 260 258 251 244 231 200 209 220
298 359 308 231 238 230 223 245 253 258 275 280 278 279 279 283 283 271 259 256 259 260 263 267 271 274 274 277 280 279 276 267 260 255 244 231 227 222
263 219 210 223 239 256 241 233 252 286 296 291 287 283 284 279 274 283 282 278 272 261 246 254 264 270 270 275 277 279 281 278 277 272 265 252 240 233
293 264 260 247 244 249 256 267 275 277 276 284 286 284 282 281 281 283 281 279 277 275 269 258 257 270 280 287 280 279 279 276 273 278 269 260 252 244
272 266 275 281 284 286 285 281 273 273 282 286 287 286 283 282 282 281 280 279 279 279 283 285 282 280 277 268 286 288 286 287 286 274 270 267 262 259
259 283 290 291 293 295 296 297 297 297 294 285 285 286 289 290 288 286 283 280 285 289 292 292 283 274 273 275 261 289 302 299 291 285 280 276 273 266
273 294 299 302 304 304 304 303 300 298 288 288 290 293 295 294 292 288 283 289 293 292 289 287 287 285 284 290 290 285 271 286 286 281 280 283 282 263
294 297 302 303 302 304 306 305 308 306 304 299 297 300 298 295 292 294 297 305 289 285 289 290 302 286 277 275 272 274 283 261 280 281 279 274 274 262
303 301 304 308 305 303 303 306 310 313 310 296 294 296 299 299 295 293 293 289 283 285 290 291 280 264 263 266 270 273 277 280 255 249 265 277 278 274
313 312 309 306 303 305 305 307 307 307 310 312 310 305 303 301 296 291 290 288 283 280 281 282 277 267 267 267 267 269 269 270 271 267 265 246 236 244